GW0066 Weather Reports


time (UTC)temp
C
wind
direction
speed
KPH
gust
KPH
rain 1hr
cm
rain 24hr
cm
rain mn
cm
humidity
%
barometer
mb
20260507155337 13 112 0.0 0.0 0.00 0.00 0.10 53 1011.8
20260507154838 13 76 1.6 3.2 0.00 0.00 0.10 52 1011.6
20260507154337 13 128 1.6 1.6 0.00 0.00 0.10 57 1011.7
20260507153837 13 355 3.2 3.2 0.00 0.00 0.10 55 1011.8
20260507153338 13 128 0.0 1.6 0.00 0.00 0.10 59 1011.6
20260507152837 13 119 0.0 1.6 0.00 0.00 0.10 55 1011.9
20260507152338 13 125 0.0 1.6 0.00 0.00 0.10 55 1012.0
20260507151837 13 110 0.0 1.6 0.00 0.00 0.10 59 1012.1
20260507151338 12 143 0.0 0.0 0.00 0.00 0.10 56 1011.8
20260507150838 12 355 3.2 4.8 0.00 0.00 0.10 55 1011.9
20260507150337 12 116 0.0 0.0 0.00 0.00 0.10 59 1012.0
20260507145838 12 127 0.0 0.0 0.00 0.00 0.10 59 1012.2
20260507145339 12 1 3.2 3.2 0.00 0.00 0.10 56 1012.2
20260507144838 12 143 0.0 1.6 0.00 0.00 0.10 58 1012.5
20260507144337 12 5 4.8 4.8 0.00 0.00 0.10 55 1012.2
20260507143838 12 136 1.6 1.6 0.00 0.00 0.10 57 1012.3
20260507143338 12 104 0.0 0.0 0.00 0.00 0.10 58 1012.5
20260507142838 12 89 1.6 1.6 0.00 0.00 0.10 58 1012.5
20260507142338 12 67 1.6 1.6 0.00 0.00 0.10 58 1012.3
20260507141838 12 118 0.0 0.0 0.00 0.00 0.10 59 1012.6
20260507141337 12 15 3.2 3.2 0.00 0.00 0.10 58 1012.7
20260507140838 12 46 3.2 4.8 0.00 0.00 0.10 60 1012.6
20260507140338 12 120 3.2 4.8 0.00 0.00 0.10 60 1012.5
20260507135837 12 358 6.4 11.3 0.00 0.00 0.10 59 1012.7
20260507135337 12 320 6.4 9.7 0.00 0.00 0.10 58 1012.5
20260507134838 12 43 4.8 4.8 0.00 0.00 0.10 59 1012.8
20260507134338 12 162 0.0 1.6 0.00 0.00 0.10 62 1012.7
20260507133838 12 124 1.6 1.6 0.00 0.00 0.10 63 1012.8
20260507133337 12 131 1.6 1.6 0.00 0.00 0.10 64 1012.7
20260507132838 12 349 6.4 6.4 0.00 0.00 0.10 62 1012.9
20260507132338 12 40 0.0 3.2 0.00 0.00 0.10 63 1012.7
20260507131838 12 34 3.2 4.8 0.00 0.00 0.10 64 1012.7
20260507131337 12 17 3.2 4.8 0.00 0.00 0.10 65 1012.4
20260507130838 12 50 3.2 4.8 0.00 0.00 0.10 64 1012.6
20260507130338 12 49 3.2 3.2 0.00 0.00 0.10 66 1012.7
20260507125837 12 42 1.6 1.6 0.00 0.00 0.10 66 1012.6
20260507125338 12 65 3.2 3.2 0.00 0.00 0.10 67 1012.6
20260507124838 12 46 1.6 3.2 0.00 0.00 0.10 67 1012.3
20260507124337 12 33 4.8 4.8 0.00 0.00 0.10 66 1012.7
20260507123837 12 41 3.2 3.2 0.00 0.00 0.10 66 1012.5
20260507123338 12 52 4.8 4.8 0.00 0.00 0.10 67 1012.6
20260507122837 12 115 1.6 1.6 0.00 0.00 0.10 67 1012.9
20260507122338 12 326 6.4 6.4 0.00 0.00 0.10 67 1012.7
20260507121837 12 151 3.2 4.8 0.00 0.00 0.10 67 1012.6
20260507121338 12 23 4.8 4.8 0.00 0.00 0.10 67 1012.4
20260507120838 12 145 3.2 4.8 0.00 0.00 0.10 68 1012.4
20260507120338 12 92 4.8 6.4 0.00 0.00 0.10 68 1012.4
20260507115837 12 60 1.6 1.6 0.00 0.00 0.10 70 1012.6
20260507115338 12 8 4.8 6.4 0.00 0.00 0.10 71 1012.3
20260507114838 12 105 1.6 3.2 0.00 0.00 0.10 72 1012.2
20260507114338 12 114 0.0 1.6 0.00 0.00 0.10 72 1012.2
20260507113838 12 116 1.6 1.6 0.00 0.00 0.10 71 1012.0
20260507113338 12 98 1.6 1.6 0.00 0.00 0.10 70 1011.8
20260507112837 12 131 1.6 1.6 0.00 0.00 0.10 72 1011.8
20260507112337 12 18 6.4 9.7 0.00 0.00 0.10 70 1012.1
20260507111837 12 61 3.2 3.2 0.00 0.00 0.10 70 1012.0
20260507111338 12 161 4.8 6.4 0.00 0.00 0.10 72 1012.1
20260507110837 12 354 3.2 3.2 0.00 0.00 0.10 74 1011.6
20260507110338 12 13 3.2 4.8 0.00 0.00 0.10 75 1012.2
20260507105838 12 11 1.6 3.2 0.00 0.00 0.10 76 1012.0
20260507105337 12 107 0.0 0.0 0.00 0.00 0.10 77 1012.0
20260507104837 12 1 3.2 3.2 0.00 0.00 0.10 76 1011.9
20260507104337 12 59 3.2 3.2 0.00 0.00 0.10 76 1011.8
20260507103837 12 346 3.2 4.8 0.00 0.00 0.10 77 1011.7
20260507103338 12 108 3.2 3.2 0.00 0.00 0.10 76 1011.8
20260507102837 12 336 3.2 3.2 0.00 0.00 0.10 77 1011.8
20260507102337 12 35 0.0 1.6 0.00 0.00 0.10 79 1011.4
20260507101837 12 95 0.0 0.0 0.00 0.00 0.10 78 1011.6
20260507101337 12 85 0.0 1.6 0.00 0.00 0.10 78 1011.4
20260507100838 12 142 1.6 1.6 0.00 0.00 0.10 79 1011.3
20260507100337 12 102 3.2 3.2 0.00 0.00 0.10 78 1011.6
20260507095838 12 129 1.6 1.6 0.00 0.00 0.10 79 1011.6
20260507095338 12 133 0.0 0.0 0.00 0.00 0.10 79 1011.4
20260507094837 12 95 0.0 0.0 0.00 0.00 0.10 79 1011.3
20260507094338 12 127 1.6 1.6 0.00 0.00 0.10 79 1011.6
20260507093838 12 122 3.2 4.8 0.00 0.00 0.10 79 1011.4
20260507093338 12 353 4.8 4.8 0.00 0.00 0.10 79 1011.6
20260507092838 12 80 1.6 3.2 0.00 0.00 0.10 79 1011.4
20260507092338 12 116 1.6 1.6 0.00 0.00 0.10 80 1011.2
20260507091838 12 359 3.2 3.2 0.00 0.00 0.10 80 1010.8
20260507091338 12 39 1.6 1.6 0.00 0.00 0.10 80 1011.3
20260507090837 12 336 3.2 4.8 0.00 0.00 0.10 80 1011.1
20260507090337 12 30 3.2 4.8 0.00 0.00 0.10 82 1011.1
20260507085837 12 56 3.2 4.8 0.00 0.00 0.10 82 1011.0
20260507085337 12 45 1.6 3.2 0.00 0.00 0.10 82 1011.2
20260507084838 12 22 4.8 4.8 0.00 0.00 0.10 83 1011.1
20260507084338 12 43 3.2 4.8 0.00 0.00 0.10 83 1011.1
20260507083838 12 51 3.2 4.8 0.00 0.00 0.10 84 1011.1
20260507083338 12 78 1.6 1.6 0.00 0.00 0.10 86 1011.0
20260507082837 12 125 1.6 3.2 0.00 0.00 0.10 85 1011.3
20260507082338 12 94 1.6 3.2 0.00 0.00 0.10 85 1011.2
20260507081838 12 145 3.2 4.8 0.00 0.00 0.10 85 1011.0
20260507081337 12 55 1.6 3.2 0.00 0.00 0.10 86 1011.0
20260507080837 12 348 3.2 4.8 0.00 0.00 0.10 86 1010.7
20260507080338 12 43 3.2 4.8 0.00 0.00 0.10 86 1010.7
20260507075837 12 114 1.6 1.6 0.00 0.00 0.10 86 1010.6
20260507075338 12 110 0.0 1.6 0.00 0.00 0.10 86 1010.4
20260507074837 12 46 1.6 3.2 0.00 0.00 0.10 85 1010.4
20260507074338 12 117 3.2 4.8 0.00 0.00 0.10 85 1010.6
20260507073838 12 7 3.2 4.8 0.00 0.00 0.10 85 1010.6
20260507073338 12 81 1.6 1.6 0.00 0.00 0.10 86 1010.5
20260507072837 12 100 3.2 4.8 0.00 0.00 0.10 85 1010.6
20260507072338 12 6 4.8 6.4 0.00 0.00 0.10 86 1010.3
20260507071838 12 12 3.2 4.8 0.00 0.00 0.10 86 1010.4
20260507071337 12 26 1.6 1.6 0.00 0.00 0.10 87 1010.4
20260507070838 12 300 4.8 6.4 0.00 0.00 0.10 87 1010.6
20260507070338 12 48 1.6 3.2 0.00 0.00 0.10 88 1010.5
20260507065837 12 3 6.4 6.4 0.00 0.00 0.10 88 1010.4
20260507065338 12 54 3.2 4.8 0.00 0.00 0.10 87 1010.6
20260507064838 12 49 1.6 4.8 0.00 0.00 0.10 87 1010.8
20260507064337 12 5 4.8 4.8 0.00 0.00 0.10 86 1010.8
20260507063837 12 10 6.4 6.4 0.00 0.00 0.10 86 1010.5
20260507063338 12 1 4.8 6.4 0.00 0.00 0.10 87 1010.5
20260507062837 12 70 1.6 1.6 0.00 0.00 0.10 88 1010.5
20260507062337 12 106 3.2 3.2 0.00 0.00 0.10 89 1010.6
20260507061837 12 102 1.6 1.6 0.00 0.00 0.10 89 1010.8
20260507061338 12 343 6.4 11.3 0.00 0.00 0.10 90 1010.2
20260507060838 12 340 3.2 4.8 0.00 0.00 0.10 91 1010.3
20260507060337 12 14 3.2 3.2 0.00 0.00 0.10 91 1010.3
20260507055838 13 25 6.4 9.7 0.00 0.00 0.10 92 1010.4
20260507055337 13 54 0.0 0.0 0.00 0.00 0.10 93 1010.4
20260507054837 13 7 4.8 4.8 0.00 0.00 0.10 93 1010.4
20260507054338 13 98 3.2 6.4 0.00 0.00 0.10 93 1010.3
20260507053838 13 352 6.4 6.4 0.00 0.00 0.10 93 1010.6
20260507053337 13 28 4.8 4.8 0.00 0.00 0.08 93 1010.6
20260507052838 13 13 3.2 4.8 0.00 0.00 0.08 92 1010.5
20260507052337 13 5 4.8 4.8 0.00 0.00 0.08 91 1010.7
20260507051838 13 2 8.0 12.9 0.00 0.00 0.08 91 1010.7
20260507051338 13 128 1.6 3.2 0.00 0.00 0.08 91 1010.4
20260507050838 13 34 4.8 6.4 0.00 0.00 0.08 91 1009.8
20260507050338 13 36 4.8 4.8 0.00 0.00 0.08 91 1010.4
20260507045837 13 1 6.4 6.4 0.00 0.00 0.08 91 1010.7
20260507045338 13 79 1.6 3.2 0.00 0.00 0.08 91 1010.8
20260507044837 13 118 1.6 1.6 0.00 0.00 0.08 92 1010.6
20260507044338 14 141 1.6 1.6 0.00 0.00 0.08 92 1010.4
20260507043837 15 66 3.2 3.2 0.00 0.00 0.08 90 1010.3
20260507043338 15 116 1.6 3.2 0.00 0.00 0.08 89 1010.9
20260507042838 15 51 3.2 4.8 0.00 0.00 0.03 87 1010.5
20260507042338 15 119 0.0 0.0 0.00 0.00 0.03 87 1010.9
20260507041837 15 346 6.4 6.4 0.00 0.00 0.00 85 1010.9
20260507041337 15 351 4.8 4.8 0.00 0.00 0.00 83 1010.5
20260507040838 15 58 4.8 4.8 0.00 0.00 0.00 83 1010.5
20260507040338 15 9 4.8 6.4 0.00 0.00 0.00 82 1010.3
20260507035837 15 112 0.0 1.6 0.00 0.00 0.81 82 1010.4
20260507035338 15 359 3.2 3.2 0.00 0.00 0.81 83 1010.1
20260507034838 15 7 3.2 3.2 0.00 0.00 0.81 82 1010.3
20260507034338 15 93 1.6 1.6 0.00 0.00 0.81 83 1010.1
20260507033838 16 29 1.6 1.6 0.00 0.00 0.81 82 1010.5
20260507033338 16 155 3.2 3.2 0.00 0.00 0.81 80 1010.2
20260507032838 16 129 1.6 3.2 0.00 0.00 0.81 79 1010.2
20260507032338 16 23 3.2 3.2 0.00 0.00 0.81 78 1010.3
20260507031838 16 88 3.2 4.8 0.00 0.00 0.81 78 1010.5
20260507031338 16 5 8.0 11.3 0.00 0.00 0.81 80 1010.3
20260507030838 16 358 6.4 6.4 0.00 0.00 0.81 80 1010.2
20260507030337 16 9 6.4 9.7 0.00 0.00 0.81 81 1010.1
20260507025838 16 11 9.7 12.9 0.00 0.00 0.81 82 1009.6
20260507025338 17 119 3.2 3.2 0.00 0.00 0.81 84 1009.4
20260507024837 17 92 1.6 1.6 0.00 0.00 0.81 85 1009.3
20260507024337 17 94 3.2 4.8 0.00 0.00 0.81 85 1009.7
20260507023837 17 116 1.6 3.2 0.00 0.00 0.81 84 1009.9
20260507023337 17 20 3.2 3.2 0.00 0.00 0.81 85 1009.6
20260507022837 17 1 3.2 3.2 0.00 0.00 0.81 85 1009.4
20260507022337 17 99 6.4 6.4 0.00 0.00 0.81 85 1009.5
20260507021838 18 23 4.8 6.4 0.00 0.00 0.81 85 1009.2
20260507021338 18 71 1.6 1.6 0.00 0.00 0.81 85 1009.2
20260507020837 18 131 3.2 3.2 0.00 0.00 0.81 84 1009.3
20260507020338 18 105 0.0 0.0 0.00 0.00 0.81 84 1009.1
20260507015838 18 7 4.8 6.4 0.00 0.00 0.81 84 1009.3
20260507015337 18 11 1.6 1.6 0.00 0.00 0.81 83 1009.2
20260507014838 18 16 3.2 4.8 0.00 0.00 0.81 83 1009.1
20260507014337 18 100 1.6 3.2 0.00 0.00 0.81 82 1009.2
20260507013838 18 43 1.6 3.2 0.00 0.00 0.81 82 1008.9
20260507013338 18 32 3.2 4.8 0.00 0.00 0.81 82 1009.1
20260507012837 19 332 6.4 9.7 0.00 0.00 0.81 82 1009.1
20260507012338 18 38 4.8 4.8 0.00 0.00 0.81 84 1009.5
20260507011838 19 244 3.2 3.2 0.00 0.00 0.81 88 1009.3
20260507011338 19 14 3.2 4.8 0.00 0.00 0.81 90 1009.5
20260507010838 19 108 3.2 3.2 0.00 0.00 0.81 91 1009.4
20260507010338 19 74 1.6 1.6 0.00 0.00 0.81 91 1009.2
20260507005838 19 118 0.0 0.0 0.00 0.00 0.81 91 1009.2
20260507005337 19 159 1.6 1.6 0.00 0.00 0.81 91 1009.0
20260507004838 19 120 0.0 0.0 0.00 0.00 0.81 91 1008.9
20260507004337 19 120 0.0 0.0 0.00 0.00 0.81 91 1009.1
20260507003838 19 48 0.0 0.0 0.00 0.00 0.81 90 1009.2
20260507003337 19 124 0.0 0.0 0.00 0.00 0.81 90 1009.2
20260507002837 19 121 0.0 0.0 0.00 0.00 0.81 89 1009.1
20260507002337 19 108 0.0 0.0 0.00 0.00 0.81 89 1008.9
20260507001838 19 120 0.0 0.0 0.00 0.00 0.81 88 1008.8
20260507001337 20 120 0.0 0.0 0.00 0.00 0.81 87 1008.8
20260507000837 20 117 0.0 0.0 0.00 0.00 0.79 87 1008.7
20260507000338 20 119 0.0 0.0 0.00 0.00 0.79 85 1008.6
20260506235837 20 122 0.0 0.0 0.00 0.00 0.79 83 1008.4
20260506235338 20 124 0.0 0.0 0.00 0.00 0.79 83 1008.7
20260506234837 20 120 0.0 0.0 0.00 0.00 0.79 82 1008.6
20260506234338 20 121 0.0 0.0 0.00 0.00 0.79 82 1008.6
20260506233837 20 121 0.0 0.0 0.00 0.00 0.79 82 1008.4
20260506233338 20 117 0.0 0.0 0.00 0.00 0.79 82 1008.1
20260506232837 20 26 0.0 0.0 0.00 0.00 0.79 82 1008.2
20260506232337 20 26 0.0 0.0 0.00 0.00 0.79 82 1008.3
20260506231837 20 121 0.0 0.0 0.00 0.00 0.79 81 1007.9
20260506231337 20 122 0.0 0.0 0.00 0.00 0.79 81 1008.1
20260506230837 20 120 0.0 0.0 0.00 0.00 0.79 81 1008.0
20260506230338 20 116 1.6 1.6 0.00 0.00 0.79 80 1008.1
20260506225837 20 138 1.6 3.2 0.00 0.00 0.79 80 1008.0
20260506225337 21 93 3.2 3.2 0.00 0.00 0.79 80 1007.9
20260506224837 21 121 0.0 0.0 0.00 0.00 0.79 80 1007.9
20260506224337 21 113 0.0 0.0 0.00 0.00 0.79 79 1007.9
20260506223838 21 80 1.6 1.6 0.00 0.00 0.79 79 1007.5
20260506223338 21 115 0.0 0.0 0.00 0.00 0.79 79 1007.8
20260506222837 21 118 1.6 1.6 0.00 0.00 0.79 79 1007.8
20260506222337 20 85 1.6 1.6 0.00 0.00 0.79 79 1007.9
20260506221838 21 270 4.8 4.8 0.00 0.00 0.79 79 1008.2
20260506221337 21 172 0.0 1.6 0.00 0.00 0.79 79 1007.4
20260506220837 21 78 3.2 3.2 0.00 0.00 0.79 78 1007.9
20260506220338 21 123 0.0 0.0 0.00 0.00 0.79 79 1007.8
20260506215837 21 59 3.2 4.8 0.00 0.00 0.79 79 1007.7
20260506215338 21 52 3.2 3.2 0.00 0.00 0.79 79 1007.9
20260506214837 21 86 1.6 3.2 0.00 0.00 0.79 78 1007.8
20260506214337 21 217 1.6 1.6 0.00 0.00 0.79 78 1007.6
20260506213837 21 77 1.6 3.2 0.00 0.00 0.79 77 1007.9
20260506213338 21 125 3.2 4.8 0.00 0.00 0.79 78 1007.8
20260506212837 21 97 1.6 1.6 0.00 0.00 0.79 77 1007.8
20260506212338 21 104 3.2 3.2 0.00 0.00 0.79 78 1007.8
20260506211837 21 176 1.6 1.6 0.00 0.00 0.79 79 1007.8
20260506211337 21 115 0.0 0.0 0.00 0.00 0.79 79 1007.9
20260506210837 21 100 4.8 4.8 0.00 0.00 0.79 79 1007.9
20260506210337 21 102 0.0 0.0 0.00 0.00 0.79 78 1007.6
20260506205838 21 140 1.6 3.2 0.00 0.00 0.79 78 1007.6
20260506205337 21 237 3.2 6.4 0.00 0.00 0.79 77 1007.4
20260506204838 21 116 1.6 3.2 0.00 0.00 0.79 78 1007.5
20260506204337 21 89 9.7 14.5 0.00 0.00 0.79 77 1007.5
20260506203838 21 73 3.2 6.4 0.00 0.00 0.79 78 1007.3
20260506203338 20 110 1.6 1.6 0.00 0.00 0.79 79 1007.2
20260506202838 21 127 1.6 1.6 0.00 0.00 0.79 78 1007.6
20260506202338 21 134 1.6 1.6 0.00 0.00 0.79 77 1007.4
20260506201838 21 87 1.6 1.6 0.00 0.00 0.79 78 1007.3
20260506201337 21 112 1.6 3.2 0.00 0.00 0.79 78 1007.4
20260506200837 20 89 1.6 1.6 0.00 0.00 0.79 79 1007.6
20260506200337 20 161 4.8 6.4 0.00 0.00 0.79 80 1007.7
20260506195837 20 118 3.2 3.2 0.00 0.00 0.79 81 1007.6
20260506195338 20 92 3.2 4.8 0.00 0.00 0.79 80 1007.6
20260506194838 20 148 0.0 0.0 0.00 0.00 0.79 80 1007.7
20260506194337 20 32 3.2 4.8 0.00 0.00 0.79 80 1007.7
20260506193838 20 145 3.2 3.2 0.00 0.00 0.79 80 1007.7
20260506193337 20 117 1.6 1.6 0.00 0.00 0.79 79 1007.7
20260506192838 20 100 1.6 1.6 0.00 0.00 0.79 81 1007.5
20260506192338 20 117 3.2 3.2 0.00 0.00 0.79 81 1007.8
20260506191837 20 126 3.2 3.2 0.00 0.00 0.79 81 1008.0
20260506191338 20 122 8.0 12.9 0.00 0.00 0.79 80 1008.0
20260506190837 20 90 1.6 1.6 0.00 0.00 0.79 81 1007.8
20260506190337 20 111 1.6 1.6 0.00 0.00 0.79 81 1008.0
20260506185837 20 54 4.8 6.4 0.00 0.00 0.79 80 1008.0
20260506185337 20 105 1.6 3.2 0.00 0.00 0.79 82 1007.9
20260506184838 19 112 0.0 0.0 0.00 0.00 0.79 83 1008.2
20260506184338 19 124 0.0 0.0 0.00 0.00 0.79 83 1008.3
20260506183838 19 146 1.6 1.6 0.00 0.00 0.79 83 1008.2
20260506183338 19 155 4.8 6.4 0.00 0.00 0.79 83 1008.2
20260506182837 18 89 1.6 3.2 0.00 0.00 0.79 84 1008.2
20260506182338 19 120 0.0 1.6 0.00 0.00 0.79 83 1008.3
20260506181837 18 157 3.2 3.2 0.00 0.00 0.79 83 1008.5
20260506181338 19 116 0.0 1.6 0.00 0.00 0.79 84 1008.7
20260506180837 18 121 0.0 1.6 0.00 0.00 0.79 84 1008.3
20260506180338 18 118 3.2 3.2 0.00 0.00 0.79 83 1008.5
20260506175837 18 268 3.2 4.8 0.00 0.00 0.79 83 1008.7
20260506175337 18 103 6.4 9.7 0.00 0.00 0.79 83 1008.5
20260506174838 18 57 1.6 1.6 0.00 0.00 0.79 84 1008.7
20260506174338 18 119 0.0 0.0 0.00 0.00 0.79 84 1008.8
20260506173838 18 167 1.6 1.6 0.00 0.00 0.79 85 1008.8
20260506173338 18 137 1.6 3.2 0.00 0.00 0.79 86 1008.8
20260506172838 18 352 6.4 9.7 0.00 0.00 0.79 87 1008.7
20260506172338 17 88 3.2 3.2 0.00 0.00 0.79 87 1008.7
20260506171838 17 114 4.8 6.4 0.00 0.00 0.79 87 1008.7
20260506171337 17 74 3.2 3.2 0.00 0.00 0.79 87 1008.8
20260506170837 17 99 0.0 1.6 0.00 0.00 0.79 88 1008.7
20260506170337 17 132 0.0 1.6 0.00 0.00 0.79 88 1008.9
20260506165838 17 1 3.2 4.8 0.00 0.00 0.79 87 1008.9
20260506165337 17 88 1.6 1.6 0.00 0.00 0.79 88 1008.8
20260506164837 17 130 3.2 3.2 0.00 0.00 0.79 89 1008.7
20260506164338 17 70 3.2 6.4 0.00 0.00 0.79 89 1008.5
20260506163837 17 130 1.6 3.2 0.00 0.00 0.79 90 1008.5
20260506163337 17 286 3.2 6.4 0.00 0.00 0.79 90 1009.0
20260506162837 17 173 3.2 3.2 0.00 0.00 0.79 91 1008.8
20260506162337 17 343 3.2 4.8 0.00 0.00 0.79 93 1008.7
20260506161837 16 218 4.8 6.4 0.00 0.00 0.79 95 1009.0
20260506161338 16 114 3.2 4.8 0.00 0.00 0.79 96 1009.1
20260506160837 16 303 3.2 4.8 0.00 0.00 0.79 97 1009.1
20260506160338 16 118 3.2 3.2 0.00 0.00 0.79 97 1008.8
20260506160134 16 118 3.2 3.2 0.00 0.00 0.79 97 1008.8